GFSWCAN_2pvu_pres_264.txt.gz
Presure
430 386 404 376 343 344 305 273 292 301 292 232 187 231 213 209 251 243 141 211 153 207 207 200 176 192 189 182 187 189 185 184 159 186 181 188 179 178 170 174 181 171 184 179 181 166 154 182 185 175 179 184 190 188
409 426 391 421 345 342 311 292 281 305 302 149 228 224 161 231 221 231 230 214 212 124 194 204 194 204 180 182 186 188 193 194 191 170 178 185 181 170 184 186 147 182 174 181 196 169 172 170 181 186 181 183 185 159
391 423 452 406 373 348 303 298 293 302 303 292 250 226 230 230 219 231 239 235 190 211 222 205 199 200 202 195 192 190 192 192 190 189 170 197 193 190 185 182 186 182 189 165 199 180 180 152 166 187 167 186 191 190
387 410 438 434 363 311 325 307 298 293 298 284 273 274 225 219 238 240 228 213 228 234 215 210 209 206 164 191 197 199 185 200 200 193 199 194 201 197 199 199 188 196 182 192 161 169 187 199 196 199 200 192 195 192
399 423 440 461 463 333 313 313 309 295 303 287 275 272 258 225 218 224 234 235 236 230 229 230 210 233 205 210 204 202 192 199 201 184 195 195 135 173 150 197 185 180 164 186 189 203 204 158 204 196 163 205 215 231
421 443 451 464 466 490 423 314 329 299 299 285 244 269 246 262 242 224 218 227 246 247 247 228 224 207 226 221 209 210 234 237 210 212 214 128 174 222 211 204 193 239 210 213 201 208 237 212 227 217 224 220 231 228
344 337 342 343 421 443 456 425 293 276 275 283 273 195 268 257 243 247 235 226 221 206 225 234 238 233 218 185 219 222 216 210 217 215 221 238 213 220 251 246 224 184 213 211 226 227 187 240 243 242 158 155 232 245
321 321 315 363 318 355 335 359 326 304 269 270 278 276 266 258 251 240 246 241 226 212 213 235 226 251 230 223 233 233 223 221 219 232 239 234 223 233 242 228 161 127 166 219 243 179 204 180 239 242 237 237 232 233
306 306 293 313 305 302 307 312 327 283 274 256 253 257 268 268 263 262 231 220 218 217 210 250 246 241 244 242 232 226 233 227 227 228 236 244 240 263 177 131 215 106 133 96 98 99 112 254 174 239 232 232 147 235
308 292 318 286 311 308 300 308 293 253 252 255 262 261 265 261 263 265 273 269 263 252 246 155 258 254 246 243 243 243 241 232 227 237 241 232 239 232 234 245 232 141 253 261 264 259 255 258 253 256 253 256 258 257
293 288 289 297 279 288 277 265 269 280 296 266 251 256 265 258 272 267 270 270 273 226 260 259 257 252 250 253 249 249 250 257 256 254 253 254 262 252 249 247 246 254 261 251 249 249 253 244 249 264 257 252 247 241
290 295 284 300 284 284 275 268 271 277 279 291 310 290 284 284 286 261 264 286 273 272 270 265 261 261 269 275 277 278 270 265 261 263 266 267 263 255 253 258 261 262 261 258 257 262 262 252 237 240 246 247 248 255
289 293 286 283 285 286 292 279 273 272 279 281 262 296 290 291 292 288 286 294 299 275 308 306 308 269 308 310 285 277 278 278 278 273 271 264 264 259 269 270 271 272 267 265 262 251 197 255 132 254 255 251 249 255
291 301 306 303 285 292 287 278 279 289 270 280 298 296 286 287 160 124 112 263 289 299 289 303 255 302 96 299 311 310 304 309 306 275 289 305 302 365 342 327 315 329 323 311 311 301 300 302 301 298 301 304 314 310
301 290 292 301 302 283 280 282 304 283 277 275 276 271 273 276 279 276 281 279 215 176 293 279 201 285 260 267 298 299 218 269 308 242 195 352 345 339 336 329 319 323 319 313 306 306 311 316 318 316 312 312 304 127
307 304 293 292 293 293 286 278 274 287 301 292 286 288 284 83 215 215 282 286 272 263 262 271 278 283 289 297 300 295 164 306 195 298 143 133 334 353 320 330 319 308 233 313 307 299 304 302 300 297 296 300 281 276
304 306 300 305 285 280 280 276 287 285 300 296 279 283 280 77 281 106 273 253 263 267 267 273 274 281 284 291 284 292 296 136 284 315 295 335 329 343 333 320 327 309 302 301 307 103 295 300 291 284 292 284 275 269
298 295 291 290 288 279 294 276 280 291 268 258 263 264 258 210 265 272 277 273 270 277 283 287 288 297 302 304 287 301 319 123 327 334 328 288 316 388 335 325 319 303 305 307 299 299 234 260 267 284 277 270 266 269
329 317 301 298 300 305 312 311 312 301 303 279 276 280 294 295 296 300 310 316 325 319 315 316 315 322 321 264 313 338 371 387 391 408 407 379 358 366 278 312 314 302 300 302 293 295 287 140 131 234 272 274 116 200
265 291 305 315 312 309 305 306 303 279 280 290 284 279 280 273 271 262 284 295 273 320 311 343 162 347 331 332 393 414 397 270 211 393 206 349 350 334 308 305 309 300 290 298 149 288 281 276 141 278 274 268 280 161
274 266 265 260 261 259 257 249 257 258 252 257 271 271 266 266 297 309 327 337 355 455 454 457 426 415 384 393 393 402 395 391 381 372 90 353 342 340 330 314 302 289 288 283 280 288 278 280 276 273 272 169 279 277
278 277 271 265 264 263 253 264 259 272 262 275 276 281 85 291 396 439 408 398 417 429 416 424 406 390 378 371 377 375 364 363 372 125 116 282 275 314 313 310 296 218 289 253 262 291 281 148 160 244 281 279 161 280
285 279 274 269 269 270 269 280 282 283 272 274 270 273 282 394 401 403 394 384 365 349 379 377 371 369 368 362 369 366 258 363 248 236 245 263 230 235 305 227 313 192 255 144 154 149 155 218 233 193 286 136 269 135
281 277 281 281 275 272 271 273 277 282 279 260 268 277 330 380 329 357 412 337 339 343 344 345 358 369 334 363 360 358 349 348 219 186 201 270 323 316 315 313 311 306 126 128 126 139 213 141 143 152 285 295 305 306
298 297 291 288 282 276 271 272 278 286 262 266 272 281 329 352 369 371 291 186 341 338 134 330 352 117 348 363 362 351 279 357 139 150 330 330 311 313 307 302 299 299 299 289 274 133 298 303 160 303 302 330 357 352
296 297 296 282 278 272 276 283 286 283 268 273 265 278 310 336 288 336 326 343 344 121 165 270 140 310 313 318 217 314 137 178 320 320 270 125 308 318 319 317 318 199 197 199 137 311 334 346 349 347 341 329 326 300
307 303 297 294 289 280 280 282 284 283 274 288 278 291 312 320 339 113 311 330 321 331 259 320 319 316 164 228 152 143 240 312 317 321 289 329 334 339 332 331 330 340 365 385 261 398 360 327 320 320 318 285 247 243
295 290 299 301 296 289 283 280 279 280 266 275 294 292 288 308 320 322 320 343 344 336 328 314 310 308 310 311 312 312 315 318 204 161 336 342 342 345 357 361 334 166 373 376 376 368 371 363 322 280 249 246 233 229
316 318 308 294 293 289 280 291 281 279 269 275 283 282 295 313 317 322 338 337 316 310 308 303 305 305 302 307 316 317 319 322 323 327 330 336 344 347 353 355 357 355 357 353 350 337 290 280 255 240 237 228 230 223
301 308 315 313 313 320 327 330 334 291 310 273 277 283 300 313 308 296 301 303 300 301 299 298 294 304 310 313 314 317 203 322 326 331 334 340 345 344 342 342 343 340 335 315 283 283 260 241 238 231 227 226 223 218
308 307 306 311 313 319 325 330 329 282 342 272 288 289 297 310 300 282 288 298 293 292 298 303 310 312 309 314 314 316 319 320 325 330 331 333 331 330 334 328 326 303 281 263 267 248 238 234 227 227 224 220 214 216
308 312 318 317 328 324 324 340 362 371 369 285 290 292 309 281 279 288 289 284 299 301 302 303 304 306 309 309 310 314 314 316 322 324 325 326 325 326 297 294 274 281 276 257 241 237 228 227 226 225 215 213 218 209
305 304 319 332 330 338 343 348 352 275 278 290 294 301 284 279 278 284 292 292 294 297 301 305 302 304 303 306 307 307 313 314 317 319 319 320 314 291 273 270 260 266 242 237 233 226 228 218 224 213 215 213 202 206

GFSWCAN_2pvu_pres_267.txt.gz
Presure
421 421 378 382 379 411 381 315 305 298 295 278 276 265 213 237 224 238 217 204 215 232 138 213 200 203 208 196 164 196 199 191 201 180 196 197 175 179 168 202 187 189 183 173 172 175 163 166 159 177 180 169 176 165
390 439 388 375 370 400 379 319 294 281 301 295 281 274 233 231 219 235 209 215 232 227 223 214 193 208 210 199 194 188 176 174 195 186 186 177 184 197 193 198 183 142 182 176 175 169 174 181 184 169 183 187 181 162
411 406 403 390 375 388 392 343 287 294 295 287 281 272 236 241 224 229 222 229 229 219 229 212 219 130 160 198 146 194 147 149 200 191 200 199 201 163 185 185 176 180 169 180 182 186 184 159 188 184 188 189 189 162
331 430 463 391 387 389 405 350 285 285 286 292 286 260 264 253 214 228 214 222 215 219 220 176 223 215 221 204 190 202 189 196 194 168 195 189 191 199 186 197 189 189 186 188 188 186 190 187 192 196 183 184 196 167
333 416 409 449 398 400 369 331 293 284 278 282 279 275 268 254 265 249 220 206 236 230 226 220 227 226 228 208 211 206 198 201 207 199 197 204 197 188 192 198 192 189 178 195 181 184 195 199 202 182 188 203 205 159
415 394 386 428 408 398 367 356 294 276 276 279 276 280 276 225 264 227 210 263 219 224 219 206 207 210 208 204 225 223 220 208 193 205 200 208 211 197 198 178 196 189 190 194 188 195 72 207 209 78 215 231 217 228
451 402 387 422 462 368 329 325 312 280 268 277 279 287 281 268 260 259 218 261 227 218 219 226 234 229 225 219 208 212 194 210 208 203 201 224 211 209 213 205 204 202 196 203 210 193 217 207 220 225 200 238 240 226
446 427 397 420 453 384 338 330 314 298 284 279 272 273 280 271 265 275 271 266 242 210 222 218 218 222 224 219 232 234 224 228 215 210 213 221 222 221 220 147 168 178 95 138 116 204 175 172 161 129 213 104 177 234
353 352 370 433 448 477 356 331 321 316 264 269 266 268 271 261 264 272 282 277 229 241 217 217 238 225 219 204 219 227 232 232 229 223 225 224 221 230 224 217 118 122 174 98 97 98 100 231 97 249 242 234 250 249
334 327 354 373 433 419 337 351 318 319 305 267 277 270 254 245 247 273 261 274 266 265 266 224 221 217 215 212 213 197 233 230 226 229 230 223 232 197 199 242 246 244 243 93 95 226 243 243 233 232 240 238 222 238
333 350 347 378 445 424 324 317 307 298 296 291 287 268 275 261 244 257 284 278 268 271 266 259 256 231 244 233 223 215 209 212 217 221 228 179 228 232 219 218 233 243 239 241 246 245 239 241 236 237 249 245 253 250
329 319 320 328 370 491 487 335 327 311 304 299 289 270 260 247 258 263 264 273 271 266 263 258 259 261 259 244 233 226 223 225 232 247 238 231 166 223 223 217 240 253 255 251 253 257 182 250 252 159 266 254 251 252
305 300 291 294 308 316 310 307 283 302 307 310 298 254 246 252 260 268 272 270 271 270 264 262 263 265 263 242 261 64 258 258 233 235 246 213 215 243 258 266 264 263 262 260 262 265 270 106 279 272 272 273 270 267
296 281 281 280 278 280 310 304 291 290 284 259 274 291 269 268 258 258 262 266 271 274 275 278 268 265 266 264 264 268 276 278 273 262 241 236 253 259 261 267 105 268 265 270 278 295 295 293 288 286 279 275 267 272
297 283 275 269 267 279 279 279 295 292 321 280 287 299 264 252 250 250 94 256 244 252 256 258 245 272 275 280 281 281 279 284 280 275 244 274 279 279 279 280 283 251 240 306 317 355 356 373 350 336 336 330 322 312
295 289 277 272 266 253 269 266 267 277 271 272 276 281 263 282 268 255 256 257 255 252 255 270 261 267 269 272 272 273 272 268 168 127 248 270 193 332 296 181 322 318 322 329 403 372 360 339 336 328 319 309 304 299
294 280 277 279 262 267 276 252 256 259 258 262 262 270 292 288 101 288 279 275 273 276 278 287 289 288 295 297 297 304 308 190 129 303 154 158 148 320 326 328 130 366 405 368 371 349 344 322 314 308 303 305 304 304
302 290 284 283 271 264 264 260 259 256 261 257 270 265 267 268 274 107 275 262 265 268 265 277 290 295 298 233 280 288 288 293 149 306 304 130 312 290 281 308 350 335 359 337 348 332 320 311 308 303 205 292 293 131
281 296 295 286 285 278 275 268 270 266 263 266 269 271 265 263 271 278 283 275 274 278 283 286 289 287 284 287 288 300 305 294 294 295 299 305 327 340 345 320 387 423 422 351 331 317 304 301 300 298 295 293 288 279
301 301 293 285 301 286 281 281 287 274 272 271 271 279 279 195 272 272 274 282 284 286 285 277 277 277 283 291 291 292 298 297 296 234 306 185 327 328 138 432 414 405 337 327 315 305 295 294 134 291 285 285 281 287
300 293 293 292 283 278 276 282 285 284 278 287 286 287 285 283 288 240 265 266 265 271 275 284 291 271 277 291 273 282 337 339 346 308 296 442 300 413 420 407 389 340 321 313 307 300 290 294 293 287 293 287 285 279
293 300 296 282 284 274 279 272 271 266 274 281 286 272 273 283 271 264 280 296 305 320 311 281 237 282 289 297 312 312 388 413 414 422 414 405 406 393 388 388 352 326 310 302 301 301 291 296 292 288 265 283 288 240
286 305 298 301 293 288 291 276 279 282 288 294 299 300 308 301 294 296 269 268 235 272 280 347 379 424 418 445 460 456 440 422 401 398 391 379 148 382 262 345 324 319 310 301 302 249 298 233 160 248 279 220 213 210
267 268 284 294 315 311 305 306 305 304 315 309 309 277 265 257 262 260 273 285 324 461 468 457 381 372 229 421 396 396 388 361 391 385 365 349 349 350 338 322 314 309 309 305 304 302 135 133 129 137 140 149 287 282
270 269 263 261 254 252 265 265 266 252 257 260 257 264 263 268 270 272 291 402 401 390 387 392 401 392 386 384 378 369 368 368 366 351 342 344 340 144 167 105 162 166 300 303 308 311 308 305 134 134 135 292 293 295
283 277 272 268 270 266 264 263 265 264 264 268 275 283 277 255 264 281 365 376 348 337 325 357 356 345 354 340 339 279 354 345 339 342 268 326 316 320 139 212 318 312 307 307 312 311 307 303 302 302 304 302 306 308
275 273 279 280 277 277 272 268 267 272 276 269 275 282 265 260 272 296 352 359 357 327 365 329 312 219 221 331 322 320 322 132 133 302 323 329 259 221 205 324 322 318 311 307 305 306 307 306 311 311 313 318 344 358
286 282 276 271 269 270 275 278 279 280 280 278 285 302 255 263 282 298 336 360 337 318 312 147 128 315 307 300 313 312 157 290 140 327 318 328 327 328 333 333 333 331 333 332 332 146 333 336 342 371 365 338 328 260
291 288 285 284 285 282 283 284 282 278 282 291 306 309 283 284 287 287 326 310 124 341 307 316 314 315 319 316 316 316 316 317 322 326 330 336 312 137 265 348 349 349 353 361 365 370 378 381 311 320 324 269 251 246
284 280 278 278 277 280 281 280 278 285 291 303 307 288 288 278 282 303 305 330 349 338 322 318 316 316 313 314 316 314 319 320 326 326 327 330 334 338 340 338 349 350 355 358 362 365 362 356 347 292 255 240 241 233
296 272 290 287 288 292 294 296 283 286 280 289 303 285 287 279 286 297 322 339 311 307 303 306 312 317 315 314 317 317 314 317 319 321 326 327 329 330 335 343 344 344 347 348 345 338 329 295 256 244 239 237 228 233
307 315 310 318 319 314 307 288 285 284 305 306 299 307 270 278 284 308 329 298 284 292 295 308 309 302 312 313 310 316 316 311 312 321 324 323 327 331 335 335 338 336 335 328 316 297 256 249 236 241 235 228 229 226
312 314 313 313 312 313 318 323 338 348 344 347 349 339 271 277 303 312 294 288 287 293 295 304 306 310 315 314 316 309 307 312 319 321 317 319 326 326 327 325 327 319 307 290 277 253 246 235 240 234 227 225 226 210

GFSWCAN_2pvu_pres_270.txt.gz
Presure
375 383 389 372 371 398 388 371 320 305 296 307 291 261 227 213 209 215 216 207 220 130 200 220 193 204 195 196 211 204 209 201 203 202 204 160 195 203 198 202 194 181 200 188 196 174 181 179 186 189 182 188 195 192
404 384 403 394 375 393 423 385 312 306 293 296 296 279 257 212 209 213 225 166 198 195 217 185 198 210 215 197 199 193 206 207 206 202 204 197 197 198 203 200 189 196 188 193 182 189 182 190 164 196 198 197 187 183
314 418 397 424 381 378 417 378 320 303 299 289 291 290 276 251 221 216 203 210 218 199 200 222 127 217 219 206 207 203 195 205 228 201 200 202 204 201 194 191 190 194 191 188 181 182 195 198 195 188 198 157 187 185
303 325 402 436 395 373 384 386 323 299 296 283 289 283 280 272 251 217 214 219 217 197 227 221 216 211 203 182 216 213 223 194 205 208 198 193 172 174 200 192 192 200 200 194 196 186 193 194 193 197 189 191 190 188
298 309 336 400 441 385 386 415 329 295 283 279 289 283 280 277 268 258 237 202 210 225 218 213 205 157 226 183 217 218 204 206 200 198 212 218 213 196 186 199 192 193 196 197 188 194 193 199 200 195 197 195 197 195
298 304 317 445 461 399 398 410 316 312 287 300 280 282 279 272 274 266 259 242 211 202 204 220 168 214 213 218 134 210 153 221 201 208 214 218 212 198 167 179 187 192 196 196 158 204 201 199 196 195 199 189 198 189
328 306 315 340 403 406 396 416 337 316 300 278 275 287 275 270 270 265 256 239 234 217 209 206 207 199 226 217 210 226 219 200 198 219 225 218 212 210 219 220 88 194 166 202 207 216 211 211 213 203 206 184 213 146
336 306 322 402 416 421 393 398 385 323 324 295 279 277 277 275 260 254 260 242 237 232 228 220 211 207 204 213 225 225 195 216 198 209 220 221 219 226 202 211 93 206 100 204 203 211 220 209 156 194 101 104 186 216
327 427 424 400 382 456 392 394 419 357 327 291 274 267 263 197 266 260 257 261 258 239 231 254 244 220 214 212 210 216 172 208 199 197 210 231 230 227 221 79 220 138 161 207 88 101 95 109 108 106 94 110 207 198
434 385 449 389 440 409 379 395 359 319 303 295 268 259 263 267 272 283 265 267 272 268 269 262 257 249 239 219 211 208 224 222 228 219 213 216 226 220 230 239 218 226 215 213 103 231 234 240 245 234 222 235 239 247
368 380 413 390 374 437 398 353 325 305 296 277 271 266 263 257 259 264 270 276 289 274 268 264 261 257 246 220 239 210 240 219 215 222 225 230 218 221 230 231 231 227 231 228 220 231 233 236 230 235 232 227 237 227
349 356 367 379 420 405 421 317 313 300 301 271 267 265 261 259 266 264 267 271 273 276 271 262 257 256 254 242 235 238 235 209 212 235 231 221 205 208 210 220 234 233 221 221 224 226 220 218 221 229 237 146 231 233
325 335 351 372 395 449 328 311 304 290 285 283 272 261 263 259 256 262 266 271 271 273 272 261 262 261 261 259 260 258 245 250 258 253 108 226 204 218 64 101 97 215 220 224 225 229 105 232 234 248 261 272 257 269
311 320 332 380 390 452 343 319 306 295 280 297 273 256 258 266 267 270 267 269 270 273 274 276 281 272 269 267 266 269 267 168 75 259 246 235 219 197 222 221 256 250 238 249 237 237 243 251 273 272 276 299 300 301
306 313 329 478 399 463 342 315 302 289 284 282 283 264 271 260 271 257 253 260 190 261 265 265 269 268 268 111 277 281 280 277 273 265 258 259 260 260 262 266 264 264 265 269 268 268 175 211 298 301 307 306 301 334
295 309 320 365 492 323 317 306 298 279 279 265 281 263 271 270 255 247 262 250 259 172 205 250 246 247 234 260 271 276 276 273 264 199 267 271 275 275 275 276 278 280 284 281 285 159 290 295 298 288 323 346 362 356
281 291 308 323 446 322 294 299 291 273 283 283 276 281 278 272 250 278 137 267 266 257 259 140 237 269 265 265 259 276 277 229 277 258 274 271 137 171 297 294 293 228 202 287 285 335 348 371 356 334 316 345 334 330
284 289 291 305 380 283 293 285 281 270 276 274 199 285 280 282 270 272 238 260 262 263 257 252 234 254 258 258 255 265 236 276 129 262 282 276 272 283 270 131 127 246 326 326 319 340 329 353 482 339 338 336 319 310
272 264 281 284 289 263 261 251 268 257 266 276 219 251 267 271 256 243 271 131 241 103 265 267 266 262 122 258 260 191 282 278 268 289 312 312 314 124 102 229 317 199 156 326 216 336 341 434 360 347 333 318 308 302
264 265 268 258 270 289 278 259 258 252 270 262 254 249 203 261 268 217 89 225 261 261 288 280 112 280 287 277 255 274 291 307 308 303 284 315 321 307 300 127 137 318 321 281 353 437 429 369 342 329 316 305 299 292
265 271 283 273 249 264 273 277 278 275 269 262 254 266 277 282 286 280 272 274 269 261 270 280 287 297 302 303 307 308 305 308 310 316 316 303 286 263 311 306 322 140 415 429 431 413 368 338 326 313 303 298 296 296
281 272 259 276 268 259 261 256 258 257 265 267 261 259 265 266 264 263 258 263 270 274 276 282 281 286 294 300 302 305 299 299 298 297 291 296 294 297 174 327 368 441 433 418 396 359 340 327 313 303 298 297 300 294
284 287 271 268 269 269 263 259 261 258 253 262 258 262 263 266 262 265 267 240 289 280 281 282 292 289 289 288 295 295 275 286 296 306 318 320 295 388 430 273 402 393 396 385 356 336 327 319 309 303 301 298 210 294
269 272 276 280 276 266 265 264 264 271 271 263 261 262 263 265 273 272 271 272 273 286 286 291 292 300 300 276 278 288 302 313 323 431 446 436 426 402 394 371 368 187 364 355 333 326 319 310 311 150 303 141 137 136
296 285 281 276 277 271 263 262 271 273 266 256 260 262 268 275 276 277 284 294 308 318 324 326 269 272 283 303 347 440 434 430 412 394 394 385 373 364 243 129 357 361 156 107 162 214 317 311 308 304 300 140 295 232
300 284 284 287 288 286 282 278 276 280 280 278 280 283 272 273 282 290 301 322 308 267 273 276 294 412 405 342 378 371 372 381 372 368 364 351 341 345 348 353 358 153 335 331 329 326 319 314 310 306 304 301 298 170
308 288 293 284 279 275 264 268 267 271 273 278 285 298 303 309 287 274 280 261 269 270 295 332 391 353 334 335 376 349 359 350 345 343 351 346 345 256 182 321 341 226 344 326 313 308 303 304 305 311 317 319 315 310
265 265 276 271 332 336 330 326 330 326 322 324 271 260 259 266 274 281 290 291 271 286 293 365 358 329 330 329 342 343 336 332 329 331 339 343 339 335 336 337 307 134 328 330 326 317 312 306 308 296 303 303 302 299
276 274 272 266 267 269 269 268 263 261 262 261 268 271 280 287 281 283 261 274 273 281 342 333 324 331 321 318 296 321 319 323 317 129 135 321 327 326 323 325 323 328 332 329 323 319 314 316 314 314 320 331 344 357
270 269 269 274 276 274 275 273 272 273 275 279 279 278 275 281 281 301 264 271 278 287 345 348 326 323 124 275 322 317 286 171 139 142 128 135 318 326 327 329 333 133 334 339 347 357 364 369 372 374 378 360 326 321
284 281 278 278 279 281 282 283 285 285 285 285 289 292 292 283 293 314 274 274 286 309 332 342 342 332 323 322 325 327 323 323 327 327 322 325 323 320 322 323 327 330 339 345 350 349 356 362 335 319 317 329 325 260
293 294 296 294 291 290 292 292 293 295 297 295 297 284 295 302 321 284 276 282 294 312 321 337 332 324 329 328 316 319 323 317 315 319 322 323 319 320 321 324 331 340 338 338 343 347 343 329 323 322 321 261 250 238
286 291 288 287 286 287 287 233 291 291 297 284 289 312 315 321 312 278 287 286 300 309 321 311 313 307 295 297 307 312 313 313 312 314 316 319 315 319 321 327 331 331 333 338 333 324 313 312 303 263 256 241 237 234

GFSWCAN_2pvu_pres_273.txt.gz
Presure
371 366 367 402 372 368 410 377 335 341 325 332 295 288 289 261 238 239 231 213 221 211 209 215 198 213 214 208 206 202 199 200 214 220 204 177 210 207 170 190 169 201 210 202 202 187 196 197 170 184 204 201 201 195
322 385 369 421 375 374 375 423 376 358 375 317 292 277 277 253 234 230 233 218 215 220 210 218 215 223 221 215 216 197 206 209 210 217 225 222 210 209 213 205 203 202 194 204 202 176 195 202 189 205 204 197 186 197
303 331 413 384 399 376 399 358 349 359 367 303 319 286 276 233 221 229 213 215 215 208 209 202 200 213 223 218 204 209 167 205 212 212 198 203 192 210 206 198 204 200 192 199 201 193 190 194 198 199 196 184 196 200
294 307 364 385 402 385 401 354 348 371 363 308 311 305 289 230 240 226 211 215 214 217 213 198 211 205 214 220 217 210 212 201 213 215 213 218 207 199 204 161 200 181 201 192 192 196 201 205 195 196 198 187 193 186
313 296 311 403 410 388 392 349 352 361 366 298 299 304 296 275 234 222 230 207 218 210 212 213 212 204 203 195 215 227 215 212 204 150 205 200 217 219 216 210 211 194 205 200 199 194 199 203 195 199 192 199 182 198
311 303 302 325 413 395 381 390 363 373 390 305 296 299 297 271 262 249 234 214 205 201 217 211 202 204 184 212 209 143 208 224 182 211 221 205 227 199 195 215 209 188 206 197 200 206 191 198 199 207 208 201 199 201
299 324 298 308 386 415 392 378 414 386 380 342 290 287 292 275 262 254 246 223 220 214 201 218 201 135 206 207 211 219 170 200 214 226 221 224 223 223 221 203 201 207 199 211 203 215 211 206 208 208 206 208 164 208
295 321 320 301 316 415 409 387 393 385 354 333 286 282 287 287 273 266 258 236 217 214 211 203 205 215 211 208 218 222 224 190 205 200 133 204 217 211 214 220 203 218 221 171 211 99 190 213 210 211 183 210 213 185
296 326 322 305 309 354 402 393 387 322 325 302 271 279 277 279 239 295 276 250 162 219 218 213 213 211 211 210 204 214 202 206 140 219 206 207 206 228 216 208 208 231 229 144 217 211 218 212 212 219 88 94 100 148
332 330 324 327 302 320 409 391 398 322 307 288 288 289 281 278 285 285 269 259 249 230 220 211 210 211 209 210 205 199 201 200 207 210 208 199 217 222 226 139 208 85 65 70 229 213 192 237 107 229 232 105 123 234
345 342 335 329 308 322 465 390 391 335 311 286 282 278 284 268 271 272 278 264 259 249 241 228 222 214 212 211 210 208 207 175 208 206 201 211 214 210 205 153 212 199 202 216 220 224 222 118 224 210 224 230 236 231
426 430 437 416 376 395 405 389 402 337 307 282 260 270 281 281 275 266 274 275 272 268 262 250 243 240 231 228 223 218 217 227 249 228 221 213 202 205 207 209 212 213 210 223 227 156 221 217 213 166 169 80 224 222
360 406 402 413 398 384 421 390 398 321 295 281 279 274 266 283 282 272 273 275 281 273 270 264 255 254 254 249 236 233 232 232 227 226 236 229 215 223 216 219 218 223 215 181 223 203 250 252 229 225 251 245 237 226
329 337 371 381 449 372 458 392 372 322 290 282 268 261 271 272 273 275 277 275 275 277 272 271 267 265 266 263 259 250 243 245 247 247 180 222 228 212 221 246 254 89 244 241 254 222 244 259 254 259 261 259 254 248
313 318 333 357 354 363 417 390 386 314 285 276 276 262 265 267 277 272 269 280 271 274 272 267 265 262 263 268 267 262 256 223 246 127 226 226 245 263 259 106 182 258 255 244 253 259 255 250 254 260 265 269 276 279
304 307 315 327 367 419 456 382 320 292 288 283 273 280 274 279 272 264 260 259 261 259 265 274 276 279 279 207 272 267 102 267 211 265 260 260 263 260 258 259 263 267 264 261 264 269 275 275 279 277 279 283 283 288
295 311 308 320 339 398 403 389 301 284 280 284 282 271 271 277 278 263 261 254 249 257 258 264 271 278 279 279 280 286 282 283 279 279 276 272 256 264 266 270 106 278 291 288 286 283 278 273 272 277 283 288 296 297
306 321 382 387 356 330 396 394 360 303 285 288 284 279 289 278 272 260 255 250 257 248 249 254 254 256 268 272 161 265 276 279 160 280 280 281 279 278 279 275 273 284 255 285 284 283 280 259 195 276 274 289 125 367
322 353 412 360 366 419 397 337 332 321 308 285 274 282 272 267 268 267 262 256 246 249 256 258 259 269 273 265 267 262 239 268 269 272 249 284 283 286 284 275 110 275 270 216 290 311 319 311 316 334 335 337 441 411
328 435 370 338 397 324 317 301 293 273 275 266 271 263 265 268 264 264 263 267 250 245 250 248 163 249 139 127 255 261 283 279 277 290 290 261 284 189 281 272 303 318 319 317 309 303 260 311 333 347 355 423 396 369
308 316 437 394 351 299 287 286 279 269 256 267 269 127 265 260 251 232 105 103 85 88 249 172 253 265 250 187 273 121 223 218 271 163 133 204 138 311 298 303 312 307 211 128 286 310 129 357 459 429 403 374 360 345
304 290 362 270 278 273 269 261 279 268 267 261 250 272 253 81 78 251 124 259 260 257 262 254 266 270 276 245 255 208 271 280 281 274 285 299 290 306 306 300 252 301 298 310 322 161 361 445 423 395 370 351 342 326
295 263 279 274 255 265 266 263 256 262 267 270 266 264 257 254 251 252 258 265 243 263 119 267 268 264 253 259 257 261 270 275 289 290 288 301 297 303 301 219 299 312 337 227 152 401 410 409 387 367 351 340 330 316
294 293 280 273 265 251 247 233 256 260 252 253 262 256 263 266 270 241 243 272 268 259 110 254 259 265 254 263 280 283 277 283 292 297 300 312 304 302 309 315 342 420 346 387 338 397 398 387 364 351 342 338 324 312
274 256 287 240 256 253 260 244 242 249 241 252 250 250 248 255 259 258 253 251 249 268 270 278 291 287 281 290 263 279 292 311 311 310 312 299 321 333 390 415 409 397 385 375 369 376 369 115 349 344 335 330 318 309
257 265 278 282 260 265 256 253 253 252 253 259 269 268 262 257 258 262 273 257 259 270 272 277 271 274 273 282 287 298 305 288 294 309 381 407 410 399 389 341 377 351 375 359 348 133 350 347 233 330 326 323 317 312
265 270 266 262 270 282 278 271 264 262 262 262 262 263 264 269 276 286 282 283 266 261 262 263 271 283 295 303 276 276 289 339 386 352 358 382 357 366 365 363 363 357 349 343 346 340 333 139 252 332 320 305 309 310
275 272 273 269 270 267 258 259 281 283 279 268 270 272 272 273 272 275 271 259 261 270 275 280 290 304 265 266 273 296 392 336 368 360 355 352 356 359 353 347 348 345 335 334 338 340 323 316 315 317 317 318 317 317
258 254 255 255 254 245 250 248 251 253 255 256 255 254 254 264 270 273 271 280 282 281 290 296 281 286 286 298 328 348 348 338 345 344 327 346 344 347 327 326 329 329 326 323 326 331 333 328 316 317 318 317 314 312
285 283 284 280 276 272 270 265 261 260 263 281 282 281 283 284 286 288 297 311 329 296 273 276 275 289 297 309 354 348 332 324 317 331 322 320 317 326 324 328 328 328 330 330 330 331 285 332 327 324 322 318 314 321
294 293 293 295 297 298 291 297 303 303 306 322 323 319 336 351 343 303 258 264 273 285 270 281 280 293 305 350 365 314 330 284 323 321 321 324 248 133 226 135 199 150 325 330 340 343 278 350 354 359 364 367 367 369
267 265 269 274 271 275 278 295 289 267 260 257 256 258 256 257 261 268 277 272 273 281 297 275 291 295 336 343 366 336 140 126 146 312 317 322 317 155 316 318 322 325 330 334 340 342 344 344 350 350 351 343 337 336
274 276 275 271 271 274 275 278 279 277 277 277 278 282 281 281 283 282 291 307 298 302 291 299 291 327 336 343 337 314 309 312 314 312 310 315 318 318 318 319 322 326 331 332 330 333 343 346 335 324 319 313 316 316

GFSWCAN_2pvu_pres_279.txt.gz
Presure
294 295 360 377 384 400 431 415 405 378 352 414 401 332 317 310 304 289 284 265 250 253 259 259 262 245 239 234 233 228 222 214 227 224 224 196 184 186 183 179 126 173 186 184 183 186 181 183 179 165 197 142 205 214
289 305 328 357 377 390 424 413 407 392 401 370 378 320 309 304 332 294 269 248 238 238 237 227 225 246 215 213 230 240 241 151 227 221 211 212 222 139 144 198 200 190 227 194 190 219 226 181 230 212 203 142 193 169
288 297 306 327 360 377 413 400 387 390 404 373 324 339 294 310 309 277 245 242 244 238 255 231 224 228 234 221 232 226 219 211 207 208 206 222 231 212 236 215 215 199 197 191 242 199 210 217 217 226 161 213 195 135
288 290 303 310 331 373 399 368 365 339 405 368 340 321 325 331 262 267 259 257 256 244 239 235 244 234 221 239 216 219 213 236 238 248 225 209 204 207 211 224 214 211 211 211 205 210 210 211 211 210 198 204 201 201
307 291 292 302 315 340 377 414 379 384 400 362 335 335 340 293 268 267 280 263 258 265 241 234 232 223 229 222 225 235 222 215 215 205 206 205 201 201 219 214 214 212 207 207 211 208 220 205 206 206 214 206 206 191
292 303 297 292 301 326 374 372 402 359 389 352 338 335 327 311 301 292 266 262 257 250 246 235 245 234 219 236 191 220 208 210 208 205 199 202 205 222 207 217 205 229 200 209 203 210 205 209 209 196 208 200 202 209
289 293 304 315 295 310 364 385 426 391 390 337 325 314 323 281 307 283 286 270 249 250 251 246 257 225 228 205 218 215 213 211 218 212 205 214 232 212 217 216 211 207 211 199 211 208 211 210 206 215 217 211 201 203
272 278 282 297 318 302 331 375 430 351 409 312 331 305 295 294 291 292 271 268 255 243 250 245 255 258 241 233 230 227 217 213 214 214 213 205 216 218 209 210 208 207 203 216 211 196 215 214 232 218 211 219 215 206
264 269 279 283 298 321 309 416 396 400 357 364 313 326 298 286 291 299 265 270 271 257 252 252 233 228 233 222 238 233 216 214 214 211 209 210 228 220 209 200 205 222 221 203 212 218 226 236 219 218 211 214 216 229
273 257 268 275 290 305 309 326 384 368 402 390 318 313 305 288 269 288 294 268 272 266 259 255 248 230 235 231 227 221 220 225 208 217 205 204 216 207 202 214 192 215 207 220 229 228 211 145 185 222 222 217 252 211
264 263 259 269 276 292 319 310 401 369 406 398 320 318 329 285 267 263 270 283 286 293 244 263 278 241 231 228 241 224 222 214 211 212 217 216 214 216 216 212 205 201 222 214 213 213 133 133 220 237 229 200 139 203
253 264 263 265 277 287 315 316 362 382 401 331 329 309 303 308 271 261 265 270 271 290 294 307 289 244 234 224 225 217 219 222 223 223 219 224 212 212 225 216 209 226 220 224 213 221 200 140 224 213 206 222 210 211
260 253 260 268 282 294 322 320 312 379 383 336 311 293 292 294 294 296 289 281 286 277 287 327 297 255 233 237 227 230 227 227 223 216 223 219 217 211 207 210 215 212 210 210 211 213 211 215 217 206 219 224 207 209
257 262 270 285 303 334 327 321 304 402 392 376 287 282 284 275 274 296 296 280 275 273 279 286 314 266 245 251 222 225 223 220 218 228 219 210 206 209 219 217 220 215 213 227 219 211 220 221 216 208 204 210 221 214
265 278 294 359 380 348 335 320 299 372 387 340 332 289 285 277 277 273 278 285 294 290 282 322 296 254 242 231 240 231 224 220 231 227 220 209 210 214 215 223 223 220 223 214 222 205 213 213 215 207 215 216 218 216
282 315 347 454 449 424 336 319 302 334 378 389 332 338 293 290 280 277 277 276 286 279 286 293 225 255 250 242 242 239 238 235 229 226 217 211 212 221 222 226 216 213 221 215 211 211 219 219 218 221 217 215 220 226
328 327 352 383 425 425 341 323 306 324 385 382 366 330 330 283 288 274 276 278 277 279 288 293 314 269 256 247 242 245 239 232 228 223 229 227 231 230 233 230 230 224 212 214 218 215 214 219 220 224 226 234 236 237
311 304 320 355 408 431 334 328 312 329 390 386 350 345 374 313 303 278 277 281 300 274 296 305 291 292 271 257 248 241 234 233 238 236 240 241 237 233 199 221 218 221 221 225 226 230 190 230 234 235 236 237 241 251
306 302 304 311 358 410 395 299 313 370 364 368 366 327 338 330 319 292 294 283 276 278 278 282 286 299 272 254 251 247 247 250 250 247 247 243 239 228 224 223 222 224 226 230 239 238 205 237 238 245 251 263 284 285
295 300 295 309 321 358 386 287 299 369 345 344 358 314 352 316 296 283 276 257 272 263 263 275 268 273 277 265 258 262 261 257 253 250 244 236 233 233 234 235 239 243 245 243 245 250 241 257 272 281 284 285 290 291
279 291 299 297 312 318 345 300 424 351 329 340 310 344 317 287 276 279 250 269 290 276 272 271 267 268 271 278 287 291 294 294 291 293 296 282 279 261 259 257 263 260 280 287 274 268 286 274 274 293 264 313 276 331
288 293 295 308 319 320 329 462 375 331 331 307 296 320 280 273 272 272 269 273 277 267 257 263 263 261 262 264 268 265 264 265 269 283 286 286 283 282 282 285 288 289 201 289 268 284 307 230 285 298 313 319 325 338
299 295 300 291 319 320 346 380 355 324 302 305 324 293 270 262 266 272 278 264 267 255 249 254 254 256 255 259 264 264 263 272 264 278 269 265 272 292 259 285 276 267 267 213 122 157 277 288 311 326 346 350 407 393
356 326 313 302 325 329 392 364 341 347 332 307 306 281 259 262 264 265 270 273 268 261 253 262 263 264 268 262 263 260 261 259 253 259 260 126 271 271 269 119 126 279 252 257 289 281 305 318 331 330 373 358 352 372
334 324 318 328 353 372 325 323 330 335 326 316 283 273 263 264 262 265 257 257 257 254 241 254 249 243 248 252 255 255 238 257 238 271 274 262 264 127 272 266 274 279 290 280 290 325 331 429 415 404 384 386 392 380
349 330 321 349 349 323 311 305 285 283 282 273 261 260 253 251 256 258 256 251 215 242 247 249 199 252 252 247 249 247 249 255 264 261 260 261 260 262 267 275 282 285 297 317 306 427 402 385 375 367 366 367 365 291
312 332 329 316 302 297 303 329 326 263 262 263 258 252 259 258 253 87 255 252 250 243 201 255 108 250 253 253 249 251 261 270 258 263 225 260 273 276 276 279 299 299 307 337 382 377 373 364 355 351 345 349 348 344
287 289 281 285 287 287 285 282 284 287 271 254 245 250 246 235 255 261 258 269 263 260 264 252 255 248 253 261 265 265 256 257 261 264 274 276 273 290 293 285 299 330 308 356 328 349 345 343 345 343 339 334 344 332
265 264 268 262 268 270 271 274 277 282 282 293 271 243 258 235 242 245 241 243 252 244 252 243 233 242 255 254 250 260 258 251 275 278 272 265 271 277 309 346 308 319 351 343 343 339 332 334 333 333 329 328 330 333
266 267 263 271 264 265 255 259 267 277 279 258 256 260 248 237 234 235 238 250 255 261 251 255 259 258 263 259 263 272 279 281 270 271 268 289 295 316 313 296 345 361 338 331 336 332 327 325 327 328 328 326 320 322
248 276 269 268 266 275 264 270 269 261 257 265 271 270 273 267 260 261 263 262 260 257 251 263 270 271 265 280 283 258 279 273 275 281 311 304 319 313 304 333 342 334 340 332 331 323 321 323 324 326 326 325 331 145
267 254 269 248 260 266 256 257 259 275 273 264 255 249 249 249 249 259 266 261 263 262 273 263 269 279 265 257 261 282 265 273 302 363 296 301 302 286 334 343 341 335 335 329 320 318 319 320 321 324 329 336 326 337
279 263 265 253 251 253 256 255 254 247 247 247 252 255 255 251 255 258 260 254 260 264 272 262 268 269 269 265 267 286 313 338 286 283 294 277 287 316 359 343 337 292 328 321 316 313 315 316 322 327 325 327 339 330